#timestamp,LO_Frequency,Hit,StdDev 
1578549615.1,286046998.1,N
1578549635.9,286047005.4,N
1578549655.7,286047005.4,N
1578549675.5,286047007.0,Y
1578549695.4,286047007.4,P
1578549715.2,286047005.2,N
1578549735.1,286047007.8,P
1578549736.0,286047007.8,Y
1578549755.8,286047004.8,P
1578549775.6,286047008.0,P
1578549795.5,286047007.5,P
1578549815.3,286047008.0,Y
1578549835.2,286047003.3,P
1578549855.9,286047006.4,P
1578549875.7,286047007.0,P
1578549895.6,286047004.5,Y
1578549915.4,286046999.4,P
1578549935.2,286046996.1,N
1578549955.1,286047001.2,N
1578549956.0,286047001.2,N
1578549975.8,286046999.8,N
1578549995.7,286047003.7,N
1578550015.5,286047007.1,N
1578550035.3,286047007.8,N
1578550055.2,286047008.9,N
1578550075.0,286047010.1,N
1578550075.9,286047010.1,N
1578550095.7,286047009.9,N
1578550115.6,286047011.2,N
1578550135.4,286047012.6,N
1578550155.3,286047015.6,Y
1578550175.1,286047006.6,P
1578550195.8,286047012.5,P
1578550215.7,286047010.9,P
1578550235.5,286047015.1,Y
1578550255.4,286047008.2,P
1578550275.2,286047005.4,P
1578550295.3,286047002.6,N
1578550315.2,286046995.3,N
1578550335.9,286046988.6,N
1578550355.7,286046993.1,N
1578550375.6,286046989.0,N
1578550395.4,286046989.6,N
1578550415.2,286046980.9,N
1578550435.1,286046982.0,N
1578550436.0,286046982.0,N
1578550455.8,286046982.2,N
1578550475.7,286046985.9,N
1578550495.5,286046984.2,N
1578550515.3,286046988.9,N
1578550535.2,286046988.4,N
1578550555.0,286046985.5,N
1578550555.9,286046985.5,N
1578550575.8,286046990.6,N
1578550595.6,286046984.8,N
1578550615.4,286046984.1,N
1578550635.3,286046988.1,N
1578550655.1,286046988.0,N
1578550675.8,286046988.7,N
1578550695.7,286046987.3,N
1578550715.5,286046991.0,N
1578550735.4,286046996.4,N
1578550755.2,286046999.3,N
1578550775.0,286046996.8,N
1578550775.9,286046996.8,N
1578550795.8,286047001.2,N
1578550815.6,286047000.5,N
1578550835.5,286046999.6,N
1578550855.3,286047001.9,N
1578550875.1,286047004.0,N
1578550895.9,286047002.8,N
1578550915.7,286046997.8,N
1578550935.5,286046993.0,N
1578550955.4,286046987.3,N
1578550975.2,286046991.6,N
1578550995.1,286046991.8,N
1578550996.0,286046991.8,N
1578551015.8,286046991.6,N
1578551035.6,286046991.6,N
1578551055.5,286046985.1,N
1578551075.3,286046984.8,N
1578551095.2,286046981.3,Y
1578551115.9,286046994.1,P
1578551135.7,286046994.6,P
1578551155.6,286046993.2,P
1578551175.4,286046994.4,Y
1578551195.3,286047010.3,P
1578551215.1,286047010.8,N
1578551216.0,286047010.8,N
1578551235.8,286047004.8,N
1578551255.7,286047004.1,N
1578551275.5,286047014.0,N
1578551295.3,286047012.6,N
1578551315.2,286047018.7,Y
1578551335.0,286047015.2,P
1578551335.9,286047015.2,P
1578551355.8,286047014.1,P
1578551375.6,286047012.8,Y
1578551395.4,286047002.9,P
1578551415.3,286047005.2,N
1578551435.1,286047006.2,N
1578551455.9,286047007.9,N
1578551475.7,286047006.3,N
1578551495.5,286047007.3,N
1578551515.4,286047017.2,Y
1578551535.2,286047007.6,P
1578551555.0,286047011.9,P
1578551555.9,286047004.9,N
1578551575.8,286047006.8,N
1578551595.6,286047008.2,Y
1578551615.5,286047006.9,P
1578551635.3,286047010.4,P
1578551655.1,286047016.6,P
1578551675.9,286047021.4,Y
1578551695.7,286047012.4,P
1578551715.5,286047007.0,P
1578551735.4,286046998.4,N
1578551755.2,286047000.6,N
1578551775.1,286047000.5,N
1578551776.0,286047000.5,N
1578551795.8,286046998.7,N
1578551815.6,286046995.6,N
1578551835.5,286046997.5,N
1578551855.3,286046996.5,N
1578551875.1,286046997.2,N
1578551895.9,286046991.9,N
1578551915.7,286046992.0,N
1578551935.6,286046990.3,N
1578551955.4,286046982.3,N
1578551975.2,286046985.1,N
1578551995.1,286046985.3,N
1578551996.0,286046985.3,N
1578552015.8,286046984.3,N
1578552035.6,286046985.7,N
1578552055.5,286046992.9,N
1578552075.3,286046999.3,N
1578552095.2,286047000.1,N
1578552115.9,286047004.0,N
1578552135.7,286047001.8,N
1578552155.6,286047004.4,N
1578552175.4,286047000.8,N
1578552195.2,286046999.0,N
1578552215.1,286046994.5,N
1578552216.0,286046994.5,N
1578552235.8,286046997.6,N
1578552255.7,286047000.5,N
1578552275.5,286046997.8,N
1578552295.3,286047001.2,N
1578552315.2,286047001.3,N
1578552335.0,286047004.1,N
1578552335.9,286047004.1,N
1578552355.8,286047007.2,N
1578552375.6,286047003.7,N
1578552395.4,286047001.6,N
1578552415.3,286046997.7,N
1578552435.1,286046992.7,N
1578552455.8,286046993.4,N
1578552475.7,286046997.4,N
1578552495.5,286046996.9,N
1578552515.4,286046993.7,N
1578552535.2,286046986.9,N
1578552555.0,286046991.9,N
1578552555.9,286046991.9,N
1578552575.8,286046993.4,N
1578552595.6,286046987.2,N
1578552615.4,286046986.4,N
1578552635.3,286046987.6,N
1578552655.1,286046985.9,N
1578552675.9,286046987.9,N
1578552695.7,286046990.1,N
1578552715.5,286046986.3,N
1578552735.4,286046982.5,N
1578552755.2,286046989.6,N
1578552775.0,286046990.7,N
1578552775.9,286046990.7,N
1578552795.8,286046996.8,N
1578552815.6,286046993.4,N
1578552835.5,286046994.4,N
1578552855.3,286046998.0,N
1578552875.1,286046989.7,N
1578552895.9,286046989.3,N
1578552915.7,286046989.7,N
1578552935.5,286046988.1,N
1578552955.4,286046987.4,N
1578552975.2,286046986.3,Y
1578552995.1,286046996.5,P
1578552996.0,286046996.5,N
1578553015.8,286047000.0,N
1578553035.6,286046995.1,N
1578553055.5,286046998.0,N
1578553075.3,286046991.8,N
1578553095.2,286046987.8,Y
1578553115.9,286046997.7,P
1578553135.7,286047002.7,N
1578553155.6,286047001.9,N
1578553175.4,286047002.8,N
1578553195.2,286046996.5,N
